This is the latest recevied weather packets stored in our database for station/object KE8URB. If no packets are shown the sender has not sent any weather packets the latest 10 day(s).
| Time | Temp. | Humidity | Pressure | Rain* | Wind** | Luminosity | Snow |
|---|---|---|---|---|---|---|---|
| 1787819297 | 18.33° C | 98% | 1014.2 hPa | 0 mm | - | 0 W/m² | - |
| 1787818992 | 18.33° C | 98% | 1014.2 hPa | 0 mm | - | 0 W/m² | - |
| 1787818690 | 18.33° C | 98% | 1014.1 hPa | 0 mm | - | 0 W/m² | - |
| 1787818387 | 18.33° C | 98% | 1013.9 hPa | 0 mm | - | 0 W/m² | - |
| 1787818082 | 18.33° C | 98% | 1014 hPa | 0 mm | - | 0 W/m² | - |
| 1787817781 | 18.33° C | 98% | 1014 hPa | 0 mm | - | 0 W/m² | - |
| 1787817478 | 18.33° C | 98% | 1014 hPa | 0 mm | - | 0 W/m² | - |
| 1787817173 | 18.33° C | 98% | 1014 hPa | 0 mm | - | 0 W/m² | - |
| 1787816872 | 18.33° C | 99% | 1013.8 hPa | 0 mm | - | 0 W/m² | - |
| 1787816568 | 18.33° C | 99% | 1014.1 hPa | 0 mm | - | 0 W/m² | - |
| 1787816264 | 18.33° C | 99% | 1013.8 hPa | 0 mm | - | 0 W/m² | - |
| 1787815958 | 18.33° C | 98% | 1013.9 hPa | 0 mm | - | 0 W/m² | - |
| 1787815654 | 18.89° C | 98% | 1014 hPa | 0 mm | - | 0 W/m² | - |
| 1787815350 | 18.33° C | 97% | 1014 hPa | 0 mm | - | 0 W/m² | - |
| 1787815046 | 18.89° C | 96% | 1013.8 hPa | 0 mm | - | 0 W/m² | - |
| 1787814745 | 18.89° C | 96% | 1013.8 hPa | 0 mm | - | 0 W/m² | - |
| 1787814445 | 18.89° C | 94% | 1013.9 hPa | 0 mm | - | 0 W/m² | - |
| 1787814140 | 19.44° C | 94% | 1013.7 hPa | 4.83 mm | - | 0 W/m² | - |
| 1787813836 | 19.44° C | 92% | 1013.8 hPa | 4.83 mm | - | 0 W/m² | - |
| 1787813531 | 20° C | 89% | 1014 hPa | 0 mm | - | 0 W/m² | - |
| 1787813227 | 20° C | 87% | 1013.9 hPa | 0 mm | - | 0 W/m² | - |
| 1787812922 | 20° C | 88% | 1013.9 hPa | 0 mm | - | 0 W/m² | - |
| 1787812618 | 19.44° C | 89% | 1014.2 hPa | 0 mm | - | 0 W/m² | - |
| 1787812313 | 18.89° C | 90% | 1014.2 hPa | 0 mm | - | 0 W/m² | - |
| 1787812008 | 18.89° C | 90% | 1014.2 hPa | 0 mm | - | 0 W/m² | - |
* Rain latest hour (hover to see other rain measurements)
** Current wind speed in m/s (hover to see current wind gust speed)